sat.trackr.live / text

‹ back to catalog

STARLINK-37140

NORAD 68311 · 2026-057T

PAYLOAD ACTIVE UNKNOWN

§ Identity

Operator
Country
US
Launch date
2026-03-20
Launch site
AFWTR
Launch vehicle
Mass (kg)
RCS (m²)

Purposes: comms

External: N2YO · Heavens-Above · Gunter

§ Orbital elements

Epoch: 2026-09-19T14:21:17.676864Z

Period
93.91 min
Inclination
97.2845°
Eccentricity
0.0001080
Mean motion
15.33450456 rev/d
Perigee alt
464.8 km
Apogee alt
466.3 km
Semi-major
6,843.7 km
B*
4.4775e-4
RAAN
27.9846°
Arg perigee
274.4694°
Mean anomaly
85.6425°
Rev number
2,837

§ Raw data

STARLINK-371401 68311U 26057T   26262.59812126  .00014410  00000+0  44775-3 0  99902 68311  97.2845  27.9846 0001080 274.4694  85.6425 15.33450456 28373

JSON: /api/v1/satellites/68311 · /tle

For live sub-satellite position, see the globe view (requires WebGL).

§ Visibility from observer

Set your observer location to see the next 7 days of passes ≥ 10°. The values pass through the URL so the page stays shareable.

No JS? Fill the form by hand. The geolocation button needs JavaScript.